West Lebanon, NH

5:33 AM EST on February 09, 2016 (GMT -0500)
Lebanon Municipal

Weather History for KLEB - August, 2013

Change the Weather History Date:

Sunday, August 25, 2013

  Actual Average Record
Temperature  
Mean Temperature 64 °F -  
Max Temperature 81 °F 77 °F 95 °F (1947)
Min Temperature 48 °F 53 °F 34 °F (1940)
Growing Degree Days 14 (Base 50)    
Moisture  
Dew Point 51 °F    
Average Humidity 81    
Maximum Humidity 100    
Minimum Humidity 34    
Precipitation  
Precipitation 0.01 in - - ()
Sea Level Pressure  
Sea Level Pressure 30.31 in    
Wind  
Wind Speed 1 mph (SSW)    
Max Wind Speed 12 mph    
Max Gust Speed -    
Visibility 6 miles    
Events Fog , Rain    
Averages and records for this station are not official NWS values.
T = Trace of Precipitation, MM = Missing Value Source: NWS Daily Summary

Daily Weather History Graph

Daily Weather History Graph

Search for Another Location

Airport or City:

Trip Planner

Search our weather history database for the weather conditions in past years. The results will help you decide how hot, cold, wet, or windy it might be!

Date:

Astronomy

Aug. 25, 2013 Rise Set
Actual Time 6:05 AM EDT 7:36 PM EDT
Civil Twilight 5:35 AM EDT 8:06 PM EDT
Nautical Twilight 4:58 AM EDT 8:42 PM EDT
Astronomical Twilight 4:19 AM EDT 9:21 PM EDT
Moon 9:53 PM EDT (8/25) 11:15 AM EDT (8/25)
Length of Visible Light 14h 31m
Length of Day
13h 31m
Waning Gibbous, 76% of the Moon is Illuminated
Aug 25
Waning Gibbous
Aug 28
Last Quarter
Sep 5
New
Sep 12
First Quarter
Sep 19
Full

Hourly Weather History & Observations

Time (EDT) Temp. Dew Point Humidity Pressure Visibility Wind Dir Wind Speed Gust Speed Precip Events Conditions
12:53 AM 50.0 °F 48.0 °F 93% 30.34 in 10.0 mi Calm Calm - N/A   Clear
1:53 AM 50.0 °F 48.0 °F 93% 30.33 in 10.0 mi Calm Calm - N/A   Clear
2:32 AM 48.2 °F 46.4 °F 93% 30.34 in 10.0 mi Calm Calm - N/A   Scattered Clouds
2:41 AM 48.2 °F 46.4 °F 93% 30.34 in 10.0 mi Calm Calm - N/A   Mostly Cloudy
2:53 AM 50.0 °F 48.0 °F 93% 30.33 in 10.0 mi Calm Calm - N/A   Overcast
3:53 AM 48.9 °F 46.9 °F 93% 30.34 in 10.0 mi NE 3.5 mph - N/A   Overcast
4:48 AM 50.0 °F 48.2 °F 94% 30.36 in 1.8 mi Calm Calm - N/A   Overcast
4:53 AM 50.0 °F 48.9 °F 96% 30.35 in 0.8 mi Calm Calm - N/A   Overcast
5:00 AM 50.0 °F 50.0 °F 100% 30.36 in 0.5 mi Calm Calm - N/A Fog Fog
5:14 AM 50.0 °F 48.2 °F 94% 30.37 in 0.2 mi Calm Calm - N/A Fog Fog
5:27 AM 50.0 °F 48.2 °F 94% 30.37 in 0.5 mi Calm Calm - N/A Fog Fog
5:48 AM 50.0 °F 50.0 °F 100% 30.38 in 0.2 mi Calm Calm - N/A Fog Fog
5:53 AM 50.0 °F 48.9 °F 96% 30.37 in 0.2 mi Calm Calm - N/A Fog Fog
6:53 AM 50.0 °F 48.9 °F 96% 30.39 in 0.2 mi Calm Calm - N/A Fog Fog
7:20 AM 50.0 °F 48.2 °F 94% 30.39 in 0.2 mi Calm Calm - N/A Fog Fog
7:53 AM 50.0 °F 50.0 °F 100% 30.38 in 0.2 mi Calm Calm - N/A Fog Fog
8:21 AM 51.8 °F 51.8 °F 100% 30.39 in 0.2 mi Calm Calm - N/A Fog Fog
8:47 AM 51.8 °F 50.0 °F 94% 30.40 in 0.5 mi Calm Calm - N/A Fog Fog
8:53 AM 52.0 °F 51.1 °F 97% 30.39 in 1.0 mi Calm Calm - N/A   Overcast
9:14 AM 51.8 °F 51.8 °F 100% 30.39 in 3.0 mi Calm Calm - N/A   Overcast
9:41 AM 55.4 °F 51.8 °F 88% 30.38 in 10.0 mi Calm Calm - N/A   Scattered Clouds
9:53 AM 57.9 °F 52.0 °F 81% 30.37 in 10.0 mi Calm Calm - N/A   Scattered Clouds
10:53 AM 66.0 °F 52.0 °F 60% 30.34 in 10.0 mi Calm Calm - N/A   Clear
11:53 AM 72.0 °F 53.1 °F 51% 30.31 in 10.0 mi Calm Calm - N/A   Clear
12:53 PM 75.9 °F 52.0 °F 43% 30.28 in 10.0 mi North 3.5 mph - N/A   Clear
1:53 PM 78.1 °F 53.1 °F 42% 30.27 in 10.0 mi Calm Calm - N/A   Clear
2:53 PM 80.1 °F 51.1 °F 36% 30.24 in 10.0 mi SW 9.2 mph - N/A   Partly Cloudy
3:53 PM 80.1 °F 48.9 °F 34% 30.22 in 10.0 mi SSW 8.1 mph - N/A   Clear
4:53 PM 81.0 °F 50.0 °F 34% 30.20 in 10.0 mi West 11.5 mph - N/A   Clear
5:53 PM 78.1 °F 51.1 °F 39% 30.18 in 10.0 mi WSW 5.8 mph - N/A   Clear
6:53 PM 68.0 °F 60.1 °F 76% 30.17 in 10.0 mi SSE 4.6 mph - N/A   Clear
7:53 PM 66.9 °F 57.9 °F 73% 30.16 in 10.0 mi SSE 6.9 mph - N/A   Clear
8:53 PM 66.0 °F 57.0 °F 73% 30.15 in 10.0 mi Calm Calm - N/A   Clear
9:53 PM 62.1 °F 57.9 °F 86% 30.16 in 10.0 mi Calm Calm - N/A   Scattered Clouds
10:53 PM 62.1 °F 57.0 °F 84% 30.15 in 10.0 mi Calm Calm - N/A   Clear
11:53 PM 62.1 °F 59.0 °F 90% 30.14 in 10.0 mi Calm Calm - 0.01 in Rain Light Rain